Location: Bakov nad Jizerou
(50.4784°N, 14.9394°E)
Time: 06:58:26
(UTC+00:00)

Cosmos 1455 Rocket - Pass Details

Date: 16 June 2021
Orbit: 604 x 630 km, 82.5° (Epoch: 04 August)

Event Time Altitude Azimuth Distance (km) Brightness Sun altitude
Rises 20:25:33 0° 348° (NNW) 2,925 7.9 -8.5°
Reaches altitude 10° 20:27:47 10° 347° (NNW) 2,016 6.9 -8.8°
Maximum altitude 20:32:15 78° 262° (W) 651 3.2 -9.2°
Drops below altitude 10° 20:36:42 10° 177° (S) 2,005 5.2 -9.5°
Enters shadow 20:36:55 - 177° (S) 2,094 5.2 -9.6°
